CCA2188 ZBAA-ZPPP

Flight info

Callsign CCA2188
Flight time 3h 2m
Altitude 35100
Route BOTPU W47 LOVRA W276 ARELA W30 MEBNA
Aircraft A359/H-SDE2E3GHIJ3J4J5LM1ORWXY/LB1D1

Departure

Time 2026-05-06 13:14
Airport Beijing Capital International Airport (ZBAA)

Arrival

Time 2026-05-06 16:17
Airport Kunming Changshui International Airport (ZPPP)
Time Latitude Longitude Altitude Speed Heading
2026-05-06 13:03 40.08557 116.58819 128 ft 0 kts 354°
2026-05-06 13:05 40.08547 116.58820 128 ft 2 kts 354°
2026-05-06 13:05 40.08532 116.58822 128 ft 2 kts
2026-05-06 13:06 40.08517 116.58818 128 ft 2 kts 26°
2026-05-06 13:06 40.08505 116.58807 128 ft 2 kts 45°
2026-05-06 13:06 40.08495 116.58792 128 ft 2 kts 64°
2026-05-06 13:06 40.08490 116.58775 128 ft 1 kts 81°
2026-05-06 13:07 40.08490 116.58768 128 ft 0 kts 83°
2026-05-06 13:09 40.08490 116.58774 128 ft 3 kts 83°
2026-05-06 13:09 40.08499 116.58859 128 ft 12 kts 82°
2026-05-06 13:09 40.08509 116.58963 128 ft 11 kts 82°
2026-05-06 13:09 40.08521 116.59080 128 ft 14 kts 83°
2026-05-06 13:10 40.08538 116.59189 128 ft 12 kts 66°
2026-05-06 13:10 40.08618 116.59236 128 ft 15 kts 358°
2026-05-06 13:10 40.08735 116.59225 128 ft 17 kts 352°
2026-05-06 13:10 40.08866 116.59197 128 ft 18 kts 351°
2026-05-06 13:11 40.08968 116.59246 128 ft 15 kts 58°
2026-05-06 13:11 40.08974 116.59330 128 ft 0 kts 103°
2026-05-06 13:13 40.08969 116.59353 128 ft 7 kts 107°
2026-05-06 13:13 40.08925 116.59440 128 ft 13 kts 135°
2026-05-06 13:13 40.08833 116.59490 128 ft 16 kts 172°
2026-05-06 13:14 40.08511 116.59550 128 ft 81 kts 172°
2026-05-06 13:14 40.07696 116.59677 128 ft 154 kts 173°
2026-05-06 13:14 40.06461 116.59893 399 ft 193 kts 172°
2026-05-06 13:14 40.05123 116.60121 1164 ft 203 kts 174°
2026-05-06 13:15 40.03656 116.60358 1913 ft 221 kts 174°
2026-05-06 13:15 40.02091 116.60604 2692 ft 236 kts 175°
2026-05-06 13:15 40.00419 116.60863 3288 ft 250 kts 176°
2026-05-06 13:15 39.98644 116.61133 3825 ft 264 kts 176°
2026-05-06 13:16 39.96816 116.61414 4582 ft 268 kts 176°
2026-05-06 13:16 39.94944 116.61704 5357 ft 273 kts 176°
2026-05-06 13:16 39.93068 116.61995 6134 ft 277 kts 176°
2026-05-06 13:16 39.91157 116.62290 6926 ft 279 kts 176°
2026-05-06 13:17 39.89230 116.62593 7781 ft 279 kts 177°
2026-05-06 13:17 39.87312 116.62892 8628 ft 278 kts 177°
2026-05-06 13:17 39.85399 116.63190 9451 ft 278 kts 177°
2026-05-06 13:17 39.83492 116.63487 10244 ft 278 kts 178°
2026-05-06 13:18 39.81579 116.63783 11001 ft 279 kts 179°
2026-05-06 13:18 39.79646 116.64074 11613 ft 287 kts 179°
2026-05-06 13:18 39.77593 116.64377 12020 ft 302 kts 179°
2026-05-06 13:18 39.75471 116.64693 12394 ft 318 kts 179°
2026-05-06 13:19 39.73198 116.65037 12766 ft 334 kts 179°
2026-05-06 13:19 39.70855 116.65044 13066 ft 341 kts 197°
2026-05-06 13:19 39.68643 116.63995 13449 ft 343 kts 216°
2026-05-06 13:19 39.66806 116.61981 13803 ft 348 kts 234°
2026-05-06 13:20 39.65611 116.59262 14099 ft 356 kts 253°
2026-05-06 13:20 39.65169 116.56072 14443 ft 366 kts 266°
2026-05-06 13:20 39.64973 116.52774 14970 ft 372 kts 265°
2026-05-06 13:20 39.64756 116.49401 15574 ft 375 kts 265°
2026-05-06 13:21 39.64539 116.46056 16207 ft 377 kts 265°
2026-05-06 13:21 39.64318 116.42664 16806 ft 380 kts 265°
2026-05-06 13:21 39.64092 116.39207 17411 ft 382 kts 265°
2026-05-06 13:21 39.63871 116.35805 17976 ft 385 kts 265°
2026-05-06 13:22 39.63646 116.32345 18548 ft 387 kts 265°
2026-05-06 13:22 39.63420 116.28868 19115 ft 389 kts 265°
2026-05-06 13:22 39.63187 116.25340 19677 ft 391 kts 265°
2026-05-06 13:22 39.62958 116.21860 20222 ft 393 kts 265°
2026-05-06 13:23 39.62725 116.18349 20764 ft 395 kts 265°
2026-05-06 13:23 39.62484 116.14802 21308 ft 396 kts 265°
2026-05-06 13:23 39.62242 116.11223 21844 ft 397 kts 264°
2026-05-06 13:23 39.62001 116.07680 22315 ft 399 kts 264°
2026-05-06 13:24 39.61755 116.04055 22819 ft 400 kts 265°
2026-05-06 13:24 39.61513 116.00483 23276 ft 402 kts 264°
2026-05-06 13:24 39.61266 115.96852 23730 ft 404 kts 264°
2026-05-06 13:24 39.61018 115.93258 24199 ft 404 kts 264°
2026-05-06 13:25 39.60769 115.89619 24647 ft 405 kts 265°
2026-05-06 13:25 39.60782 115.85983 25037 ft 408 kts 273°
2026-05-06 13:25 39.61248 115.82358 25454 ft 413 kts 281°
2026-05-06 13:25 39.62158 115.78796 25805 ft 419 kts 288°
2026-05-06 13:26 39.63436 115.75424 26164 ft 423 kts 292°
2026-05-06 13:26 39.64813 115.72026 26517 ft 425 kts 292°
2026-05-06 13:26 39.66318 115.68694 26792 ft 434 kts 299°
2026-05-06 13:26 39.68318 115.65704 27120 ft 446 kts 309°
2026-05-06 13:27 39.70788 115.63171 27433 ft 460 kts 319°
2026-05-06 13:27 39.73636 115.61220 27656 ft 474 kts 327°
2026-05-06 13:27 39.76688 115.59488 27972 ft 477 kts 328°
2026-05-06 13:27 39.79757 115.57806 28209 ft 480 kts 328°
2026-05-06 13:28 39.82835 115.56130 28458 ft 482 kts 328°
2026-05-06 13:28 39.85937 115.54435 28719 ft 483 kts 328°
2026-05-06 13:28 39.89027 115.52734 28952 ft 485 kts 327°
2026-05-06 13:28 39.92005 115.50741 29104 ft 473 kts 317°
2026-05-06 13:29 39.94486 115.48071 29427 ft 457 kts 306°
2026-05-06 13:29 39.96455 115.44898 29745 ft 444 kts 296°
2026-05-06 13:29 39.97857 115.41431 30053 ft 433 kts 285°
2026-05-06 13:29 39.98734 115.37714 30369 ft 424 kts 277°
2026-05-06 13:30 39.99086 115.33965 30710 ft 418 kts 270°
2026-05-06 13:30 39.99305 115.30171 31110 ft 416 kts 270°
2026-05-06 13:30 39.99510 115.26437 31425 ft 415 kts 270°
2026-05-06 13:30 39.99716 115.22720 31730 ft 415 kts 269°
2026-05-06 13:31 39.99912 115.18985 32068 ft 413 kts 270°
2026-05-06 13:31 40.00104 115.15257 32391 ft 412 kts 269°
2026-05-06 13:31 40.00294 115.11558 32688 ft 411 kts 270°
2026-05-06 13:31 40.00480 115.07876 32980 ft 410 kts 270°
2026-05-06 13:32 40.00665 115.04188 33292 ft 408 kts 269°
2026-05-06 13:32 40.00851 115.00465 33590 ft 407 kts 269°
2026-05-06 13:32 40.01024 114.96846 33844 ft 406 kts 270°
2026-05-06 13:32 40.01204 114.93153 34091 ft 405 kts 270°
2026-05-06 13:33 40.01379 114.89512 34326 ft 404 kts 270°
2026-05-06 13:33 40.01553 114.85840 34541 ft 403 kts 270°
2026-05-06 13:33 40.01732 114.82201 34722 ft 404 kts 270°
2026-05-06 13:33 40.01905 114.78550 34841 ft 405 kts 270°
2026-05-06 13:34 40.02076 114.74902 34942 ft 406 kts 270°
2026-05-06 13:34 40.02249 114.71242 35099 ft 407 kts 270°
2026-05-06 13:34 40.02419 114.67587 35243 ft 407 kts 270°
2026-05-06 13:34 40.02589 114.63916 35378 ft 407 kts 270°
2026-05-06 13:35 40.02760 114.60230 35496 ft 408 kts 270°
2026-05-06 13:35 40.02928 114.56515 35611 ft 409 kts 270°
2026-05-06 13:35 40.03096 114.52811 35729 ft 409 kts 271°
2026-05-06 13:35 40.03264 114.49119 35853 ft 410 kts 271°
2026-05-06 13:36 40.03429 114.45444 35973 ft 410 kts 271°
2026-05-06 13:36 40.03597 114.41726 36088 ft 410 kts 270°
2026-05-06 13:36 40.03761 114.38042 36209 ft 411 kts 271°
2026-05-06 13:37 40.04087 114.30598 36252 ft 412 kts 270°
2026-05-06 13:37 40.04414 114.23130 36257 ft 412 kts 270°
2026-05-06 13:38 40.04733 114.15704 36264 ft 412 kts 271°
2026-05-06 13:38 40.05231 114.08279 36268 ft 413 kts 272°
2026-05-06 13:39 40.05769 114.00806 36272 ft 415 kts 272°
2026-05-06 13:39 40.06313 113.93233 36264 ft 418 kts 272°
2026-05-06 13:40 40.06858 113.85654 36265 ft 418 kts 273°
2026-05-06 13:40 40.07399 113.78110 36276 ft 419 kts 273°
2026-05-06 13:41 40.07934 113.70564 36283 ft 419 kts 273°
2026-05-06 13:41 40.08467 113.63012 36283 ft 417 kts 273°
2026-05-06 13:42 40.09000 113.55456 36279 ft 418 kts 272°
2026-05-06 13:42 40.09518 113.48008 36277 ft 412 kts 273°
2026-05-06 13:43 40.10028 113.40552 36282 ft 412 kts 272°
2026-05-06 13:43 40.10558 113.33092 36292 ft 411 kts 272°
2026-05-06 13:44 40.11071 113.25706 36290 ft 411 kts 273°
2026-05-06 13:44 40.11576 113.18261 36290 ft 410 kts 273°
2026-05-06 13:45 40.12070 113.10863 36292 ft 411 kts 272°
2026-05-06 13:45 40.12798 112.99698 36287 ft 410 kts 273°
2026-05-06 13:46 40.13273 112.92309 36283 ft 411 kts 273°
2026-05-06 13:46 40.13749 112.84872 36287 ft 411 kts 273°
2026-05-06 13:47 40.14219 112.77435 36275 ft 412 kts 273°
2026-05-06 13:47 40.14687 112.69982 36275 ft 413 kts 273°
2026-05-06 13:48 40.15147 112.62521 36283 ft 413 kts 273°
2026-05-06 13:48 40.15346 112.55020 36303 ft 413 kts 269°
2026-05-06 13:49 40.14964 112.47533 36309 ft 413 kts 264°
2026-05-06 13:49 40.14021 112.40139 36316 ft 413 kts 259°
2026-05-06 13:50 40.12514 112.32924 36327 ft 416 kts 254°
2026-05-06 13:50 40.10607 112.25745 36316 ft 417 kts 254°
2026-05-06 13:51 40.08690 112.18636 36323 ft 417 kts 253°
2026-05-06 13:51 40.06705 112.11519 36321 ft 417 kts 253°
2026-05-06 13:52 40.04715 112.04430 36320 ft 417 kts 252°
2026-05-06 13:52 40.02699 111.97369 36318 ft 418 kts 251°
2026-05-06 13:53 40.00148 111.90522 36329 ft 423 kts 245°
2026-05-06 13:53 39.96930 111.84091 36324 ft 428 kts 239°
2026-05-06 13:54 39.93029 111.78118 36333 ft 434 kts 233°
2026-05-06 13:54 39.88558 111.72815 36338 ft 438 kts 228°
2026-05-06 13:55 39.83867 111.67726 36332 ft 440 kts 228°
2026-05-06 13:55 39.79169 111.62642 36334 ft 438 kts 228°
2026-05-06 13:56 39.74461 111.57561 36332 ft 439 kts 228°
2026-05-06 13:56 39.69775 111.52515 36335 ft 438 kts 228°
2026-05-06 13:57 39.65059 111.47446 36328 ft 438 kts 228°
2026-05-06 13:57 39.60487 111.42534 36331 ft 438 kts 228°
2026-05-06 13:58 39.55789 111.37495 36336 ft 436 kts 228°
2026-05-06 13:58 39.51104 111.32478 36389 ft 434 kts 228°
2026-05-06 13:59 39.46443 111.27470 36341 ft 435 kts 228°
2026-05-06 13:59 39.41753 111.22456 36329 ft 435 kts 228°
2026-05-06 14:00 39.37129 111.17526 36327 ft 433 kts 228°
2026-05-06 14:00 39.32477 111.12577 36334 ft 433 kts 228°
2026-05-06 14:01 39.27802 111.07613 36323 ft 434 kts 228°
2026-05-06 14:01 39.23271 111.02560 36317 ft 425 kts 234°
2026-05-06 14:02 39.19790 110.96584 36329 ft 413 kts 246°
2026-05-06 14:02 39.17540 110.89838 36322 ft 404 kts 257°
2026-05-06 14:03 39.16585 110.82778 36332 ft 400 kts 268°
2026-05-06 14:03 39.16718 110.75636 36334 ft 399 kts 272°
2026-05-06 14:04 39.17008 110.68529 36333 ft 400 kts 272°
2026-05-06 14:04 39.17323 110.61390 36336 ft 400 kts 273°
2026-05-06 14:05 39.17646 110.54265 36339 ft 400 kts 273°
2026-05-06 14:05 39.17970 110.47113 36347 ft 400 kts 273°
2026-05-06 14:06 39.18291 110.40004 36343 ft 400 kts 274°
2026-05-06 14:06 39.18610 110.32859 36350 ft 400 kts 272°
2026-05-06 14:07 39.18928 110.25699 36355 ft 400 kts 272°
2026-05-06 14:07 39.19236 110.18544 36354 ft 400 kts 273°
2026-05-06 14:08 39.19563 110.11356 36359 ft 400 kts 274°
2026-05-06 14:08 39.19907 110.04235 36358 ft 400 kts 274°
2026-05-06 14:09 39.20251 109.97089 36363 ft 400 kts 273°
2026-05-06 14:09 39.20591 109.89926 36366 ft 400 kts 274°
2026-05-06 14:10 39.20925 109.82772 36357 ft 399 kts 274°
2026-05-06 14:10 39.21257 109.75661 36358 ft 400 kts 273°
2026-05-06 14:11 39.21580 109.68503 36360 ft 400 kts 273°
2026-05-06 14:11 39.21425 109.61404 36369 ft 402 kts 260°
2026-05-06 14:12 39.19159 109.54761 36367 ft 417 kts 242°
2026-05-06 14:12 39.17239 109.51897 36370 ft 428 kts 232°
2026-05-06 14:12 39.14826 109.49537 36369 ft 444 kts 221°
2026-05-06 14:13 39.11982 109.47837 36359 ft 463 kts 210°
2026-05-06 14:13 39.08821 109.46832 36397 ft 474 kts 204°
2026-05-06 14:13 39.02393 109.45102 36366 ft 473 kts 203°
2026-05-06 14:14 38.95920 109.43484 36371 ft 474 kts 203°
2026-05-06 14:14 38.89436 109.41886 36371 ft 475 kts 203°
2026-05-06 14:15 38.82999 109.40324 36372 ft 474 kts 203°
2026-05-06 14:15 38.76510 109.38735 36373 ft 475 kts 203°
2026-05-06 14:16 38.70038 109.37140 36373 ft 474 kts 203°
2026-05-06 14:16 38.63573 109.35544 36361 ft 473 kts 203°
2026-05-06 14:17 38.57104 109.33932 36366 ft 473 kts 203°
2026-05-06 14:17 38.50659 109.32313 36362 ft 474 kts 202°
2026-05-06 14:18 38.44197 109.30722 36360 ft 473 kts 202°
2026-05-06 14:18 38.37669 109.29456 36358 ft 482 kts 198°
2026-05-06 14:19 38.30911 109.28901 36359 ft 490 kts 194°
2026-05-06 14:19 38.24120 109.28472 36362 ft 487 kts 194°
2026-05-06 14:20 38.17368 109.28048 36353 ft 487 kts 194°
2026-05-06 14:20 38.10587 109.27619 36351 ft 487 kts 194°
2026-05-06 14:21 38.03876 109.27212 36346 ft 484 kts 194°
2026-05-06 14:21 37.97116 109.26818 36343 ft 486 kts 194°
2026-05-06 14:22 37.90396 109.26426 36345 ft 483 kts 194°
2026-05-06 14:22 37.83672 109.26037 36347 ft 486 kts 194°
2026-05-06 14:23 37.76937 109.25648 36350 ft 487 kts 194°
2026-05-06 14:23 37.70138 109.25247 36346 ft 487 kts 194°
2026-05-06 14:24 37.63393 109.24850 36342 ft 486 kts 194°
2026-05-06 14:24 37.56665 109.24457 36348 ft 486 kts 194°
2026-05-06 14:25 37.49923 109.24059 36342 ft 484 kts 194°
2026-05-06 14:25 37.43194 109.23664 36345 ft 487 kts 194°
2026-05-06 14:26 37.36424 109.23267 36346 ft 486 kts 194°
2026-05-06 14:26 37.29711 109.22876 36343 ft 486 kts 194°
2026-05-06 14:27 37.22930 109.22482 36343 ft 487 kts 194°
2026-05-06 14:27 37.16196 109.22090 36344 ft 485 kts 194°
2026-05-06 14:28 37.09469 109.21695 36341 ft 486 kts 194°
2026-05-06 14:28 37.02724 109.21304 36341 ft 485 kts 194°
2026-05-06 14:29 36.95978 109.20911 36342 ft 486 kts 193°
2026-05-06 14:29 36.89225 109.20520 36331 ft 484 kts 193°
2026-05-06 14:30 36.82521 109.20140 36334 ft 485 kts 193°
2026-05-06 14:30 36.75769 109.19759 36333 ft 484 kts 193°
2026-05-06 14:31 36.69044 109.19369 36331 ft 483 kts 193°
2026-05-06 14:31 36.62374 109.18987 36331 ft 485 kts 193°
2026-05-06 14:32 36.55632 109.18596 36333 ft 484 kts 193°
2026-05-06 14:32 36.48888 109.18204 36330 ft 486 kts 193°
2026-05-06 14:33 36.42123 109.17814 36326 ft 485 kts 193°
2026-05-06 14:33 36.35381 109.17410 36331 ft 487 kts 193°
2026-05-06 14:34 36.28657 109.16961 36327 ft 484 kts 193°
2026-05-06 14:34 36.21946 109.16509 36325 ft 484 kts 193°
2026-05-06 14:35 36.15183 109.16050 36319 ft 487 kts 192°
2026-05-06 14:35 36.08434 109.15593 36312 ft 485 kts 192°
2026-05-06 14:36 36.01720 109.15141 36304 ft 486 kts 192°
2026-05-06 14:36 35.94958 109.14689 36303 ft 486 kts 192°
2026-05-06 14:37 35.88255 109.13872 36298 ft 480 kts 197°
2026-05-06 14:37 35.81739 109.12297 36303 ft 473 kts 202°
2026-05-06 14:38 35.75473 109.09991 36293 ft 467 kts 208°
2026-05-06 14:38 35.69398 109.07288 36294 ft 468 kts 208°
2026-05-06 14:39 35.63269 109.04577 36298 ft 469 kts 208°
2026-05-06 14:39 35.57126 109.01854 36290 ft 470 kts 208°
2026-05-06 14:40 35.50917 108.99107 36293 ft 473 kts 208°
2026-05-06 14:40 35.44759 108.96387 36295 ft 473 kts 208°
2026-05-06 14:41 35.38573 108.93656 36295 ft 472 kts 207°
2026-05-06 14:41 35.32397 108.90933 36298 ft 473 kts 207°
2026-05-06 14:42 35.26179 108.88199 36305 ft 473 kts 208°
2026-05-06 14:42 35.19988 108.85476 36299 ft 476 kts 207°
2026-05-06 14:43 35.13759 108.82742 36286 ft 477 kts 207°
2026-05-06 14:43 35.07527 108.80016 36290 ft 477 kts 207°
2026-05-06 14:44 35.01252 108.77270 36274 ft 478 kts 207°
2026-05-06 14:45 34.91862 108.73170 36278 ft 478 kts 207°
2026-05-06 14:45 34.85626 108.70466 36277 ft 478 kts 207°
2026-05-06 14:46 34.79351 108.67752 36273 ft 478 kts 207°
2026-05-06 14:46 34.73085 108.65032 36267 ft 478 kts 207°
2026-05-06 14:47 34.66847 108.62328 36266 ft 476 kts 207°
2026-05-06 14:47 34.60560 108.59598 36253 ft 477 kts 207°
2026-05-06 14:48 34.54310 108.56888 36250 ft 478 kts 207°
2026-05-06 14:48 34.48072 108.54202 36254 ft 479 kts 207°
2026-05-06 14:49 34.41748 108.51504 36262 ft 478 kts 206°
2026-05-06 14:49 34.35491 108.48827 36265 ft 477 kts 207°
2026-05-06 14:50 34.29238 108.46150 36266 ft 477 kts 207°
2026-05-06 14:50 34.22968 108.43460 36275 ft 479 kts 207°
2026-05-06 14:51 34.16702 108.40781 36293 ft 479 kts 206°
2026-05-06 14:51 34.10436 108.38105 36313 ft 479 kts 206°
2026-05-06 14:52 34.04181 108.35435 36331 ft 479 kts 206°
2026-05-06 14:52 33.97886 108.32732 36358 ft 479 kts 206°
2026-05-06 14:53 33.91597 108.30036 36372 ft 479 kts 206°
2026-05-06 14:53 33.85323 108.27373 36386 ft 479 kts 205°
2026-05-06 14:54 33.79044 108.24719 36399 ft 481 kts 205°
2026-05-06 14:54 33.72702 108.22031 36391 ft 481 kts 205°
2026-05-06 14:55 33.66398 108.19373 36383 ft 482 kts 205°
2026-05-06 14:55 33.60067 108.16711 36354 ft 483 kts 205°
2026-05-06 14:56 33.53754 108.14049 36324 ft 482 kts 205°
2026-05-06 14:56 33.47430 108.11385 36299 ft 484 kts 205°
2026-05-06 14:57 33.41048 108.08746 36278 ft 485 kts 203°
2026-05-06 14:57 33.34562 108.06433 36280 ft 487 kts 202°
2026-05-06 14:58 33.28089 108.04123 36273 ft 487 kts 202°
2026-05-06 14:58 33.21575 108.01801 36267 ft 488 kts 202°
2026-05-06 14:59 33.15099 107.99492 36262 ft 488 kts 202°
2026-05-06 14:59 33.08574 107.97169 36253 ft 488 kts 202°
2026-05-06 15:00 33.02086 107.94862 36244 ft 489 kts 202°
2026-05-06 15:00 32.95568 107.92548 36231 ft 489 kts 202°
2026-05-06 15:01 32.89049 107.90241 36215 ft 490 kts 201°
2026-05-06 15:01 32.82512 107.87942 36217 ft 489 kts 201°
2026-05-06 15:02 32.75972 107.85643 36224 ft 490 kts 201°
2026-05-06 15:02 32.69422 107.83337 36240 ft 489 kts 202°
2026-05-06 15:03 32.62941 107.81054 36227 ft 487 kts 202°
2026-05-06 15:03 32.56411 107.78757 36215 ft 488 kts 202°
2026-05-06 15:04 32.49924 107.76475 36204 ft 489 kts 201°
2026-05-06 15:04 32.43381 107.74177 36196 ft 489 kts 201°
2026-05-06 15:05 32.36860 107.71892 36186 ft 488 kts 202°
2026-05-06 15:05 32.30374 107.69617 36177 ft 488 kts 202°
2026-05-06 15:06 32.23856 107.67330 36159 ft 489 kts 201°
2026-05-06 15:06 32.17324 107.65056 36165 ft 488 kts 201°
2026-05-06 15:07 32.10795 107.62808 36174 ft 489 kts 201°
2026-05-06 15:07 32.04261 107.60551 36165 ft 490 kts 201°
2026-05-06 15:08 31.97717 107.58283 36164 ft 489 kts 201°
2026-05-06 15:08 31.91189 107.56025 36150 ft 489 kts 201°
2026-05-06 15:09 31.84679 107.53784 36130 ft 490 kts 201°
2026-05-06 15:09 31.78128 107.51531 36124 ft 489 kts 201°
2026-05-06 15:10 31.71600 107.49284 36114 ft 489 kts 202°
2026-05-06 15:10 31.65066 107.47031 36107 ft 489 kts 201°
2026-05-06 15:11 31.58562 107.44785 36102 ft 488 kts 201°
2026-05-06 15:11 31.52047 107.42536 36090 ft 489 kts 202°
2026-05-06 15:12 31.45515 107.40282 36088 ft 487 kts 203°
2026-05-06 15:12 31.39174 107.37605 36074 ft 482 kts 208°
2026-05-06 15:13 31.33151 107.34270 36072 ft 479 kts 212°
2026-05-06 15:13 31.27215 107.30698 36052 ft 478 kts 212°
2026-05-06 15:14 31.21310 107.27158 36042 ft 479 kts 212°
2026-05-06 15:14 31.15387 107.23622 36037 ft 479 kts 212°
2026-05-06 15:15 31.09412 107.20065 36041 ft 480 kts 212°
2026-05-06 15:15 31.03501 107.16553 36033 ft 478 kts 212°
2026-05-06 15:16 30.97580 107.13038 36040 ft 478 kts 212°
2026-05-06 15:16 30.91625 107.09506 36041 ft 478 kts 212°
2026-05-06 15:17 30.85721 107.06021 36043 ft 477 kts 212°
2026-05-06 15:17 30.79782 107.02521 36041 ft 477 kts 212°
2026-05-06 15:18 30.73888 106.99036 36038 ft 477 kts 213°
2026-05-06 15:18 30.68149 106.95217 36043 ft 471 kts 218°
2026-05-06 15:19 30.62762 106.90981 36047 ft 469 kts 219°
2026-05-06 15:19 30.57378 106.86691 36050 ft 469 kts 220°
2026-05-06 15:20 30.52004 106.82404 36057 ft 469 kts 220°
2026-05-06 15:20 30.46634 106.78123 36044 ft 469 kts 220°
2026-05-06 15:21 30.41248 106.73832 36041 ft 469 kts 220°
2026-05-06 15:21 30.35903 106.69578 36037 ft 468 kts 219°
2026-05-06 15:22 30.30525 106.65295 36035 ft 468 kts 219°
2026-05-06 15:22 30.25135 106.61064 36034 ft 469 kts 217°
2026-05-06 15:23 30.19294 106.57581 36028 ft 477 kts 208°
2026-05-06 15:23 30.12968 106.55222 36024 ft 485 kts 199°
2026-05-06 15:24 30.06228 106.54084 36031 ft 495 kts 189°
2026-05-06 15:24 29.99316 106.53986 36039 ft 498 kts 186°
2026-05-06 15:25 29.92360 106.53996 36040 ft 498 kts 186°
2026-05-06 15:25 29.85386 106.54002 36041 ft 499 kts 186°
2026-05-06 15:26 29.78439 106.54003 36042 ft 499 kts 187°
2026-05-06 15:26 29.71483 106.54000 36036 ft 499 kts 186°
2026-05-06 15:27 29.64527 106.54005 36039 ft 500 kts 186°
2026-05-06 15:27 29.57579 106.54003 36039 ft 501 kts 186°
2026-05-06 15:28 29.50567 106.54004 36035 ft 501 kts 186°
2026-05-06 15:28 29.43547 106.54003 36031 ft 502 kts 186°
2026-05-06 15:29 29.36578 106.54004 36033 ft 504 kts 186°
2026-05-06 15:29 29.29620 106.53674 36026 ft 493 kts 197°
2026-05-06 15:30 29.23280 106.51014 36044 ft 478 kts 215°
2026-05-06 15:30 29.18024 106.46510 36042 ft 472 kts 225°
2026-05-06 15:31 29.13030 106.41656 36046 ft 473 kts 225°
2026-05-06 15:31 29.07996 106.36769 36046 ft 472 kts 225°
2026-05-06 15:32 29.00490 106.29486 36051 ft 474 kts 224°
2026-05-06 15:32 28.95453 106.24612 36058 ft 474 kts 224°
2026-05-06 15:33 28.90444 106.19785 36065 ft 474 kts 224°
2026-05-06 15:33 28.85369 106.14933 36073 ft 474 kts 224°
2026-05-06 15:34 28.80351 106.10143 36082 ft 473 kts 225°
2026-05-06 15:34 28.75279 106.05293 36085 ft 474 kts 224°
2026-05-06 15:35 28.70228 106.00463 36095 ft 473 kts 224°
2026-05-06 15:35 28.65203 105.95663 36091 ft 474 kts 224°
2026-05-06 15:36 28.60164 105.90856 36088 ft 474 kts 224°
2026-05-06 15:36 28.55123 105.86051 36079 ft 473 kts 224°
2026-05-06 15:37 28.50058 105.81231 36077 ft 472 kts 224°
2026-05-06 15:37 28.45040 105.76457 36078 ft 473 kts 224°
2026-05-06 15:38 28.39998 105.71671 36093 ft 472 kts 224°
2026-05-06 15:38 28.34955 105.66887 36116 ft 472 kts 225°
2026-05-06 15:39 28.29925 105.62122 36133 ft 473 kts 225°
2026-05-06 15:39 28.24848 105.57320 36154 ft 473 kts 224°
2026-05-06 15:40 28.19812 105.52563 36162 ft 473 kts 224°
2026-05-06 15:40 28.14774 105.47809 36167 ft 473 kts 224°
2026-05-06 15:41 28.09690 105.43018 36173 ft 473 kts 224°
2026-05-06 15:41 28.04662 105.38287 36177 ft 473 kts 224°
2026-05-06 15:42 27.99604 105.33530 36191 ft 473 kts 224°
2026-05-06 15:42 27.94523 105.28732 36191 ft 473 kts 224°
2026-05-06 15:43 27.89468 105.23976 36200 ft 473 kts 224°
2026-05-06 15:43 27.84404 105.19257 36205 ft 473 kts 224°
2026-05-06 15:44 27.79309 105.14512 36202 ft 473 kts 224°
2026-05-06 15:44 27.74261 105.09806 36216 ft 472 kts 224°
2026-05-06 15:45 27.69208 105.05094 36240 ft 473 kts 224°
2026-05-06 15:45 27.64131 105.00364 36246 ft 473 kts 224°
2026-05-06 15:46 27.59056 104.95641 36254 ft 474 kts 225°
2026-05-06 15:46 27.53959 104.90903 36260 ft 475 kts 224°
2026-05-06 15:47 27.48869 104.86179 36275 ft 474 kts 224°
2026-05-06 15:47 27.43777 104.81457 36267 ft 475 kts 225°
2026-05-06 15:48 27.38700 104.76753 36269 ft 474 kts 224°
2026-05-06 15:48 27.33574 104.72014 36281 ft 475 kts 225°
2026-05-06 15:49 27.28478 104.67305 36284 ft 475 kts 225°
2026-05-06 15:49 27.23375 104.62594 36289 ft 474 kts 225°
2026-05-06 15:50 27.18274 104.57892 36292 ft 475 kts 225°
2026-05-06 15:50 27.13183 104.53204 36320 ft 475 kts 225°
2026-05-06 15:51 27.08072 104.48502 36337 ft 475 kts 225°
2026-05-06 15:51 27.02982 104.43823 36355 ft 475 kts 225°
2026-05-06 15:52 26.97872 104.39130 36354 ft 475 kts 225°
2026-05-06 15:52 26.92771 104.34445 36368 ft 475 kts 224°
2026-05-06 15:53 26.87652 104.29737 36380 ft 475 kts 224°
2026-05-06 15:53 26.82519 104.25021 36379 ft 475 kts 225°
2026-05-06 15:54 26.77471 104.20315 36378 ft 474 kts 225°
2026-05-06 15:54 26.74937 104.17950 36162 ft 469 kts 225°
2026-05-06 15:54 26.72438 104.15616 35343 ft 469 kts 225°
2026-05-06 15:55 26.69949 104.13291 34587 ft 468 kts 225°
2026-05-06 15:55 26.67440 104.10945 33827 ft 466 kts 225°
2026-05-06 15:55 26.64955 104.08625 33064 ft 465 kts 225°
2026-05-06 15:55 26.62491 104.06328 32359 ft 463 kts 225°
2026-05-06 15:56 26.60016 104.04017 31702 ft 466 kts 225°
2026-05-06 15:56 26.57531 104.01698 31046 ft 468 kts 224°
2026-05-06 15:56 26.55061 103.99393 30395 ft 469 kts 224°
2026-05-06 15:56 26.52556 103.97062 29745 ft 470 kts 224°
2026-05-06 15:57 26.50029 103.94713 29093 ft 472 kts 224°
2026-05-06 15:57 26.47489 103.92351 28414 ft 474 kts 224°
2026-05-06 15:57 26.44957 103.90000 27735 ft 476 kts 223°
2026-05-06 15:57 26.42422 103.87646 27050 ft 476 kts 223°
2026-05-06 15:58 26.39895 103.85303 26450 ft 472 kts 223°
2026-05-06 15:58 26.37380 103.82973 25918 ft 468 kts 223°
2026-05-06 15:58 26.34879 103.80653 25443 ft 466 kts 223°
2026-05-06 15:58 26.32387 103.78344 25029 ft 463 kts 223°
2026-05-06 15:59 26.29950 103.76086 24309 ft 451 kts 223°
2026-05-06 15:59 26.27576 103.73889 23642 ft 430 kts 223°
2026-05-06 15:59 26.25299 103.71777 23034 ft 428 kts 223°
2026-05-06 15:59 26.23012 103.69650 22377 ft 432 kts 223°
2026-05-06 16:00 26.20707 103.67514 21755 ft 432 kts 223°
2026-05-06 16:00 26.18390 103.65376 21136 ft 430 kts 223°
2026-05-06 16:00 26.16105 103.63268 20494 ft 425 kts 223°
2026-05-06 16:00 26.13901 103.61237 19858 ft 400 kts 223°
2026-05-06 16:01 26.11822 103.59315 19237 ft 379 kts 223°
2026-05-06 16:01 26.09836 103.57474 18638 ft 367 kts 223°
2026-05-06 16:01 26.07861 103.55637 18005 ft 376 kts 223°
2026-05-06 16:01 26.05831 103.53749 17373 ft 381 kts 223°
2026-05-06 16:02 26.03808 103.51868 16756 ft 384 kts 223°
2026-05-06 16:02 26.01752 103.49956 16131 ft 385 kts 223°
2026-05-06 16:02 25.99688 103.48042 15503 ft 386 kts 222°
2026-05-06 16:02 25.97632 103.46140 14883 ft 387 kts 221°
2026-05-06 16:03 25.95555 103.44221 14257 ft 387 kts 221°
2026-05-06 16:03 25.93464 103.42371 13638 ft 388 kts 217°
2026-05-06 16:03 25.91193 103.40720 13154 ft 384 kts 211°
2026-05-06 16:03 25.88866 103.39365 12923 ft 373 kts 206°
2026-05-06 16:04 25.86516 103.38257 12904 ft 356 kts 204°
2026-05-06 16:04 25.84288 103.37249 12898 ft 339 kts 204°
2026-05-06 16:04 25.82149 103.36283 12891 ft 324 kts 204°
2026-05-06 16:04 25.80099 103.35353 12879 ft 309 kts 204°
2026-05-06 16:05 25.78150 103.34462 12873 ft 295 kts 204°
2026-05-06 16:05 25.76295 103.33604 12870 ft 281 kts 204°
2026-05-06 16:05 25.74527 103.32787 12868 ft 268 kts 204°
2026-05-06 16:05 25.72820 103.31998 12859 ft 267 kts 205°
2026-05-06 16:06 25.71109 103.31210 12712 ft 266 kts 205°
2026-05-06 16:06 25.69381 103.30417 12570 ft 265 kts 204°
2026-05-06 16:06 25.67681 103.29639 12434 ft 264 kts 204°
2026-05-06 16:06 25.65988 103.28867 12295 ft 263 kts 205°
2026-05-06 16:07 25.64294 103.28094 12155 ft 262 kts 205°
2026-05-06 16:07 25.62614 103.27329 12012 ft 261 kts 205°
2026-05-06 16:07 25.60922 103.26557 11868 ft 260 kts 205°
2026-05-06 16:07 25.59253 103.25796 11725 ft 259 kts 205°
2026-05-06 16:08 25.57586 103.25037 11583 ft 259 kts 205°
2026-05-06 16:08 25.55918 103.24279 11446 ft 258 kts 205°
2026-05-06 16:08 25.54240 103.23517 11312 ft 257 kts 205°
2026-05-06 16:08 25.52586 103.22765 11177 ft 256 kts 205°
2026-05-06 16:09 25.50926 103.22011 11040 ft 255 kts 205°
2026-05-06 16:09 25.49289 103.21265 10900 ft 254 kts 205°
2026-05-06 16:09 25.47658 103.20523 10764 ft 253 kts 205°
2026-05-06 16:09 25.46026 103.19782 10626 ft 252 kts 205°
2026-05-06 16:10 25.44398 103.19043 10488 ft 251 kts 205°
2026-05-06 16:10 25.42791 103.18314 10351 ft 249 kts 205°
2026-05-06 16:10 25.41174 103.17577 10209 ft 249 kts 205°
2026-05-06 16:10 25.39569 103.16848 10072 ft 248 kts 205°
2026-05-06 16:11 25.37973 103.16125 9932 ft 247 kts 205°
2026-05-06 16:11 25.36384 103.15424 9885 ft 246 kts 203°
2026-05-06 16:11 25.34763 103.14814 9873 ft 246 kts 202°
2026-05-06 16:11 25.33211 103.14077 9848 ft 237 kts 212°
2026-05-06 16:12 25.31862 103.13094 9843 ft 222 kts 220°
2026-05-06 16:12 25.30680 103.12058 9852 ft 217 kts 221°
2026-05-06 16:12 25.29498 103.10989 9848 ft 218 kts 221°
2026-05-06 16:12 25.28328 103.09942 9846 ft 218 kts 221°
2026-05-06 16:13 25.27133 103.08887 9837 ft 214 kts 221°
2026-05-06 16:13 25.26007 103.07903 9825 ft 200 kts 221°
2026-05-06 16:13 25.24942 103.06976 9832 ft 194 kts 221°
2026-05-06 16:13 25.23870 103.06043 9723 ft 195 kts 221°
2026-05-06 16:14 25.22819 103.05128 9493 ft 193 kts 221°
2026-05-06 16:14 25.21763 103.04210 9248 ft 192 kts 220°
2026-05-06 16:14 25.20707 103.03292 9003 ft 191 kts 220°
2026-05-06 16:14 25.19670 103.02389 8762 ft 191 kts 220°
2026-05-06 16:15 25.18616 103.01472 8523 ft 191 kts 220°
2026-05-06 16:15 25.17586 103.00575 8277 ft 186 kts 219°
2026-05-06 16:15 25.16589 102.99708 8049 ft 180 kts 219°
2026-05-06 16:15 25.15599 102.98845 7834 ft 180 kts 219°
2026-05-06 16:16 25.14616 102.97990 7613 ft 180 kts 219°
2026-05-06 16:16 25.13668 102.97163 7378 ft 166 kts 218°
2026-05-06 16:16 25.12802 102.96410 7175 ft 151 kts 218°
2026-05-06 16:16 25.11990 102.95702 7012 ft 150 kts 218°
2026-05-06 16:17 25.11168 102.94991 6923 ft 147 kts 216°
2026-05-06 16:17 25.10468 102.94388 6919 ft 96 kts 219°
2026-05-06 16:17 25.10138 102.94103 6919 ft 35 kts 223°
2026-05-06 16:17 25.10038 102.93938 6919 ft 16 kts 240°
2026-05-06 16:18 25.09984 102.93829 6919 ft 15 kts 246°
2026-05-06 16:18 25.09971 102.93720 6919 ft 14 kts 291°
2026-05-06 16:18 25.10030 102.93621 6919 ft 15 kts 305°
2026-05-06 16:18 25.10096 102.93526 6919 ft 15 kts 312°
2026-05-06 16:19 25.10177 102.93474 6919 ft 13 kts 355°
2026-05-06 16:19 25.10215 102.93472 6919 ft 0 kts 358°